Time,TemperatureF,DewpointF,PressureIn,WindDirection,WindDirectionDegrees,WindSpeedMPH,WindSpeedGustMPH,Humidity,HourlyPrecipIn,Conditions,Clouds,dailyrainin,SoftwareType,DateUTC
2013-04-02 00:03:00,44.0,21.0,29.93,NW,325,10.0,14.0,39,0.00,,,0.00,,2013-04-02 04:03:00,
2013-04-02 00:13:00,44.0,21.0,29.93,NW,325,10.0,14.0,39,0.00,,,0.00,,2013-04-02 04:13:00,
2013-04-02 00:23:00,43.0,20.0,29.93,NW,320,12.0,15.0,39,0.00,,,0.00,,2013-04-02 04:23:00,
2013-04-02 00:33:00,43.0,20.0,29.93,NW,325,12.0,15.0,39,0.00,,,0.00,,2013-04-02 04:33:00,
2013-04-02 00:43:00,43.0,20.0,29.93,NW,325,12.0,15.0,39,0.00,,,0.00,,2013-04-02 04:43:00,
2013-04-02 00:53:00,42.0,19.0,29.93,NNW,330,12.0,15.0,39,0.00,,,0.00,,2013-04-02 04:53:00,
2013-04-02 01:02:00,42.0,19.0,29.96,NW,320,12.0,15.0,39,0.00,,,0.00,,2013-04-02 05:02:00,
2013-04-02 01:12:00,42.0,19.0,29.96,NW,320,12.0,15.0,39,0.00,,,0.00,,2013-04-02 05:12:00,
2013-04-02 01:22:00,42.0,19.0,29.96,NNW,330,15.0,17.0,39,0.00,,,0.00,,2013-04-02 05:22:00,
2013-04-02 01:32:00,42.0,19.0,29.96,NW,315,15.0,16.0,39,0.00,,,0.00,,2013-04-02 05:32:00,
2013-04-02 01:43:00,42.0,19.0,29.96,NW,315,15.0,16.0,39,0.00,,,0.00,,2013-04-02 05:43:00,
2013-04-02 01:52:00,42.0,19.0,29.96,NNW,330,13.0,15.0,39,0.00,,,0.00,,2013-04-02 05:52:00,
2013-04-02 02:02:00,41.0,18.0,29.98,NNW,330,13.0,13.0,39,0.00,,,0.00,,2013-04-02 06:02:00,
2013-04-02 02:12:00,41.0,18.0,29.98,NNW,330,13.0,13.0,39,0.00,,,0.00,,2013-04-02 06:12:00,
2013-04-02 02:22:00,41.0,18.0,29.98,NNW,330,12.0,14.0,39,0.00,,,0.00,,2013-04-02 06:22:00,
2013-04-02 02:32:00,41.0,18.0,29.98,NNW,330,13.0,20.0,39,0.00,,,0.00,,2013-04-02 06:32:00,
2013-04-02 02:42:00,41.0,18.0,29.98,NNW,330,13.0,20.0,39,0.00,,,0.00,,2013-04-02 06:42:00,
2013-04-02 02:52:00,40.0,17.0,29.98,NW,325,12.0,20.0,39,0.00,,,0.00,,2013-04-02 06:52:00,
2013-04-02 03:02:00,40.0,17.0,29.98,NNW,330,10.0,13.0,39,0.00,,,0.00,,2013-04-02 07:02:00,
2013-04-02 03:12:00,40.0,17.0,29.98,NNW,330,10.0,13.0,39,0.00,,,0.00,,2013-04-02 07:12:00,
2013-04-02 03:22:00,39.0,16.0,29.98,NNW,335,9.0,12.0,39,0.00,,,0.00,,2013-04-02 07:22:00,
2013-04-02 03:32:00,39.0,16.0,29.98,NNW,330,9.0,9.0,39,0.00,,,0.00,,2013-04-02 07:32:00,
2013-04-02 03:42:00,39.0,16.0,29.98,NNW,330,9.0,9.0,39,0.00,,,0.00,,2013-04-02 07:42:00,
2013-04-02 03:53:00,38.0,15.0,29.98,NNW,330,8.0,9.0,39,0.00,,,0.00,,2013-04-02 07:53:00,
2013-04-02 04:02:00,38.0,15.0,29.98,NNW,335,7.0,8.0,39,0.00,,,0.00,,2013-04-02 08:02:00,
2013-04-02 04:13:00,38.0,15.0,29.98,NNW,335,7.0,8.0,39,0.00,,,0.00,,2013-04-02 08:13:00,
2013-04-02 04:22:00,39.0,16.0,29.98,North,350,5.0,7.0,39,0.00,,,0.00,,2013-04-02 08:22:00,
2013-04-02 04:32:00,38.0,15.0,29.98,NNW,335,6.0,6.0,39,0.00,,,0.00,,2013-04-02 08:32:00,
2013-04-02 04:42:00,38.0,15.0,29.98,NNW,335,6.0,6.0,39,0.00,,,0.00,,2013-04-02 08:42:00,
2013-04-02 04:52:00,37.0,14.0,29.98,North,350,6.0,8.0,39,0.00,,,0.00,,2013-04-02 08:52:00,
2013-04-02 05:02:00,38.0,15.0,29.98,NNW,335,5.0,7.0,39,0.00,,,0.00,,2013-04-02 09:02:00,
2013-04-02 05:12:00,38.0,15.0,29.98,NNW,335,5.0,7.0,39,0.00,,,0.00,,2013-04-02 09:12:00,
2013-04-02 05:22:00,37.0,14.0,30.01,NNW,345,6.0,8.0,39,0.00,,,0.00,,2013-04-02 09:22:00,
2013-04-02 05:32:00,37.0,14.0,30.01,NNW,330,6.0,10.0,39,0.00,,,0.00,,2013-04-02 09:32:00,
2013-04-02 05:43:00,37.0,14.0,30.01,NNW,330,6.0,10.0,39,0.00,,,0.00,,2013-04-02 09:43:00,
2013-04-02 05:53:00,36.0,13.0,30.01,NNW,345,6.0,8.0,39,0.00,,,0.00,,2013-04-02 09:53:00,
2013-04-02 06:03:00,36.0,13.0,30.01,NNW,330,5.0,5.0,39,0.00,,,0.00,,2013-04-02 10:03:00,
2013-04-02 06:13:00,36.0,13.0,30.01,NNW,330,5.0,5.0,39,0.00,,,0.00,,2013-04-02 10:13:00,
2013-04-02 06:23:00,36.0,13.0,30.01,NNW,335,3.0,6.0,39,0.00,,,0.00,,2013-04-02 10:23:00,
2013-04-02 06:33:00,36.0,13.0,30.01,NNW,330,3.0,3.0,39,0.00,,,0.00,,2013-04-02 10:33:00,
2013-04-02 06:42:00,36.0,13.0,30.01,NNW,330,3.0,3.0,39,0.00,,,0.00,,2013-04-02 10:42:00,
2013-04-02 06:53:00,35.0,13.0,30.04,NW,325,3.0,8.0,39,0.00,,,0.00,,2013-04-02 10:53:00,
2013-04-02 07:02:00,36.0,13.0,30.04,NW,320,3.0,6.0,39,0.00,,,0.00,,2013-04-02 11:02:00,
2013-04-02 07:12:00,36.0,13.0,30.04,NW,320,3.0,6.0,39,0.00,,,0.00,,2013-04-02 11:12:00,
2013-04-02 07:22:00,35.0,13.0,30.04,NNW,345,2.0,6.0,39,0.00,,,0.00,,2013-04-02 11:22:00,
2013-04-02 07:33:00,35.0,13.0,30.04,NW,320,1.0,1.0,39,0.00,,,0.00,,2013-04-02 11:33:00,
2013-04-02 07:43:00,35.0,13.0,30.04,NW,320,1.0,1.0,39,0.00,,,0.00,,2013-04-02 11:43:00,
2013-04-02 07:53:00,35.0,13.0,30.04,NW,305,0.0,2.0,39,0.00,,,0.00,,2013-04-02 11:53:00,
2013-04-02 08:02:00,36.0,13.0,30.04,NW,320,1.0,5.0,39,0.00,,,0.00,,2013-04-02 12:02:00,
2013-04-02 08:12:00,36.0,13.0,30.04,NW,320,1.0,5.0,39,0.00,,,0.00,,2013-04-02 12:12:00,
2013-04-02 08:23:00,38.0,15.0,30.07,NW,325,2.0,5.0,39,0.00,,,0.00,,2013-04-02 12:23:00,
2013-04-02 08:32:00,39.0,16.0,30.07,NW,305,3.0,5.0,39,0.00,,,0.00,,2013-04-02 12:32:00,
2013-04-02 08:42:00,39.0,16.0,30.07,NW,305,3.0,5.0,39,0.00,,,0.00,,2013-04-02 12:42:00,
2013-04-02 08:53:00,41.0,18.0,30.07,NW,320,6.0,8.0,39,0.00,,,0.00,,2013-04-02 12:53:00,
2013-04-02 09:02:00,41.0,18.0,30.07,NW,310,7.0,12.0,39,0.00,,,0.00,,2013-04-02 13:02:00,
2013-04-02 09:12:00,41.0,18.0,30.10,West,270,10.0,13.0,39,0.00,,,0.00,,2013-04-02 13:12:00,
2013-04-02 09:22:00,41.0,18.0,30.10,West,270,10.0,13.0,39,0.00,,,0.00,,2013-04-02 13:22:00,
2013-04-02 09:33:00,41.0,18.0,30.07,NW,305,10.0,14.0,39,0.00,,,0.00,,2013-04-02 13:33:00,
2013-04-02 09:42:00,41.0,18.0,30.07,NW,305,10.0,14.0,39,0.00,,,0.00,,2013-04-02 13:42:00,
2013-04-02 09:52:00,42.0,19.0,30.07,WNW,295,10.0,13.0,39,0.00,,,0.00,,2013-04-02 13:52:00,
2013-04-02 10:02:00,42.0,19.0,30.07,West,280,10.0,15.0,39,0.00,,,0.00,,2013-04-02 14:02:00,
2013-04-02 10:12:00,42.0,19.0,30.07,West,280,10.0,15.0,39,0.00,,,0.00,,2013-04-02 14:12:00,
2013-04-02 10:23:00,43.0,20.0,30.07,WNW,300,14.0,16.0,39,0.00,,,0.00,,2013-04-02 14:23:00,
2013-04-02 10:32:00,43.0,20.0,30.07,NW,305,13.0,14.0,39,0.00,,,0.00,,2013-04-02 14:32:00,
2013-04-02 10:42:00,43.0,20.0,30.07,NW,305,13.0,14.0,39,0.00,,,0.00,,2013-04-02 14:42:00,
2013-04-02 10:52:00,44.0,21.0,30.07,WNW,295,14.0,16.0,39,0.00,,,0.00,,2013-04-02 14:52:00,
2013-04-02 11:02:00,44.0,21.0,30.07,NW,315,13.0,15.0,39,0.00,,,0.00,,2013-04-02 15:02:00,
2013-04-02 11:11:00,44.0,21.0,30.07,NW,315,13.0,15.0,39,0.00,,,0.00,,2013-04-02 15:11:00,
2013-04-02 11:22:00,44.0,21.0,30.07,WNW,295,13.0,15.0,39,0.00,,,0.00,,2013-04-02 15:22:00,
2013-04-02 11:33:00,45.0,22.0,30.07,WNW,295,13.0,15.0,39,0.00,,,0.00,,2013-04-02 15:33:00,
2013-04-02 11:43:00,45.0,22.0,30.07,WNW,295,13.0,15.0,39,0.00,,,0.00,,2013-04-02 15:43:00,
2013-04-02 11:58:00,45.0,22.0,30.07,NW,305,12.0,14.0,39,0.00,,,0.00,,2013-04-02 15:58:00,
2013-04-02 12:04:00,45.0,22.0,30.07,NW,315,12.0,13.0,39,0.00,,,0.00,,2013-04-02 16:04:00,
2013-04-02 12:13:00,45.0,22.0,30.07,NW,315,12.0,13.0,39,0.00,,,0.00,,2013-04-02 16:13:00,
2013-04-02 12:24:00,47.0,23.0,30.07,West,275,10.0,13.0,39,0.00,,,0.00,,2013-04-02 16:24:00,
2013-04-02 12:37:00,46.0,22.0,30.07,WNW,300,10.0,14.0,39,0.00,,,0.00,,2013-04-02 16:37:00,
2013-04-02 12:44:00,46.0,22.0,30.07,WNW,300,10.0,14.0,39,0.00,,,0.00,,2013-04-02 16:44:00,
2013-04-02 12:53:00,47.0,23.0,30.07,WNW,300,12.0,14.0,39,0.00,,,0.00,,2013-04-02 16:53:00,
2013-04-02 13:05:00,47.0,23.0,30.07,NW,305,13.0,16.0,39,0.00,,,0.00,,2013-04-02 17:05:00,
2013-04-02 13:13:00,47.0,23.0,30.07,NW,305,13.0,16.0,39,0.00,,,0.00,,2013-04-02 17:13:00,
2013-04-02 13:25:00,46.0,22.0,30.07,NW,315,15.0,17.0,39,0.00,,,0.00,,2013-04-02 17:25:00,
2013-04-02 13:34:00,47.0,23.0,30.04,WNW,300,15.0,17.0,39,0.00,,,0.00,,2013-04-02 17:34:00,
2013-04-02 13:43:00,47.0,23.0,30.04,WNW,300,15.0,17.0,39,0.00,,,0.00,,2013-04-02 17:43:00,
2013-04-02 13:56:00,47.0,23.0,30.04,WNW,290,14.0,16.0,39,0.00,,,0.00,,2013-04-02 17:56:00,
2013-04-02 14:04:00,46.0,22.0,30.04,WNW,300,13.0,18.0,39,0.00,,,0.00,,2013-04-02 18:04:00,
2013-04-02 14:12:00,46.0,22.0,30.04,WNW,300,13.0,18.0,39,0.00,,,0.00,,2013-04-02 18:12:00,
2013-04-02 14:23:00,46.0,22.0,30.04,WNW,285,14.0,17.0,39,0.00,,,0.00,,2013-04-02 18:23:00,
2013-04-02 14:34:00,47.0,23.0,30.04,NW,305,14.0,15.0,39,0.00,,,0.00,,2013-04-02 18:34:00,
2013-04-02 14:43:00,47.0,23.0,30.04,NW,305,14.0,15.0,39,0.00,,,0.00,,2013-04-02 18:43:00,
2013-04-02 14:57:00,47.0,23.0,30.04,NW,305,16.0,21.0,39,0.00,,,0.00,,2013-04-02 18:57:00,
2013-04-02 15:03:00,47.0,23.0,30.04,West,280,16.0,21.0,39,0.00,,,0.00,,2013-04-02 19:03:00,
2013-04-02 15:13:00,47.0,23.0,30.04,West,280,16.0,21.0,39,0.00,,,0.00,,2013-04-02 19:13:00,
2013-04-02 15:23:00,48.0,24.0,30.04,WNW,290,15.0,20.0,39,0.00,,,0.00,,2013-04-02 19:23:00,
2013-04-02 15:34:00,47.0,23.0,30.04,NW,310,16.0,16.0,39,0.00,,,0.00,,2013-04-02 19:34:00,
2013-04-02 15:45:00,47.0,23.0,30.04,NW,310,16.0,16.0,39,0.00,,,0.00,,2013-04-02 19:45:00,
2013-04-02 15:57:00,47.0,23.0,30.04,WNW,295,15.0,18.0,39,0.00,,,0.00,,2013-04-02 19:57:00,
2013-04-02 16:03:00,47.0,23.0,30.04,WNW,295,15.0,17.0,39,0.00,,,0.00,,2013-04-02 20:03:00,
2013-04-02 16:13:00,47.0,23.0,30.04,WNW,295,15.0,17.0,39,0.00,,,0.00,,2013-04-02 20:13:00,
2013-04-02 16:22:00,47.0,23.0,30.04,NW,305,13.0,16.0,39,0.00,,,0.00,,2013-04-02 20:22:00,
2013-04-02 16:33:00,47.0,23.0,30.04,NW,305,13.0,16.0,39,0.00,,,0.00,,2013-04-02 20:33:00,
2013-04-02 16:44:00,47.0,23.0,30.04,NW,305,13.0,16.0,39,0.00,,,0.00,,2013-04-02 20:44:00,
2013-04-02 16:55:00,47.0,23.0,30.04,NW,305,13.0,16.0,39,0.00,,,0.00,,2013-04-02 20:55:00,
2013-04-02 17:04:00,47.0,23.0,30.04,WNW,290,16.0,16.0,39,0.00,,,0.00,,2013-04-02 21:04:00,
2013-04-02 17:13:00,47.0,23.0,30.04,WNW,290,16.0,16.0,39,0.00,,,0.00,,2013-04-02 21:13:00,
2013-04-02 17:23:00,47.0,23.0,30.04,WNW,285,14.0,17.0,39,0.00,,,0.00,,2013-04-02 21:23:00,
2013-04-02 17:35:00,47.0,23.0,30.04,NW,310,15.0,20.0,39,0.00,,,0.00,,2013-04-02 21:35:00,
2013-04-02 17:44:00,47.0,23.0,30.04,NW,310,15.0,20.0,39,0.00,,,0.00,,2013-04-02 21:44:00,
2013-04-02 17:56:00,47.0,23.0,30.04,WNW,285,15.0,20.0,39,0.00,,,0.00,,2013-04-02 21:56:00,
2013-04-02 18:04:00,47.0,23.0,30.04,WNW,300,15.0,18.0,39,0.00,,,0.00,,2013-04-02 22:04:00,
2013-04-02 18:14:00,47.0,23.0,30.04,WNW,300,15.0,18.0,39,0.00,,,0.00,,2013-04-02 22:14:00,
2013-04-02 18:24:00,46.0,22.0,30.04,WNW,300,12.0,16.0,39,0.00,,,0.00,,2013-04-02 22:24:00,
2013-04-02 18:33:00,46.0,22.0,30.04,WNW,295,13.0,14.0,39,0.00,,,0.00,,2013-04-02 22:33:00,
2013-04-02 18:43:00,46.0,22.0,30.04,WNW,295,13.0,14.0,39,0.00,,,0.00,,2013-04-02 22:43:00,
2013-04-02 18:54:00,45.0,22.0,30.07,NW,305,13.0,14.0,39,0.00,,,0.00,,2013-04-02 22:54:00,
2013-04-02 19:03:00,45.0,22.0,29.78,WNW,295,13.0,16.0,39,0.00,,,0.00,,2013-04-02 23:03:00,
2013-04-02 19:13:00,44.0,21.0,30.07,WNW,290,10.0,14.0,39,0.00,,,0.00,,2013-04-02 23:13:00,
2013-04-02 19:23:00,44.0,21.0,30.07,WNW,290,10.0,14.0,39,0.00,,,0.00,,2013-04-02 23:23:00,
2013-04-02 19:35:00,43.0,20.0,30.07,NW,315,10.0,13.0,39,0.00,,,0.00,,2013-04-02 23:35:00,
2013-04-02 19:43:00,43.0,20.0,30.07,NW,315,10.0,13.0,39,0.00,,,0.00,,2013-04-02 23:43:00,
2013-04-02 19:54:00,42.0,19.0,30.07,WNW,295,12.0,15.0,39,0.00,,,0.00,,2013-04-02 23:54:00,
2013-04-02 20:04:00,42.0,19.0,30.07,WNW,285,12.0,15.0,39,0.00,,,0.00,,2013-04-03 00:04:00,
2013-04-02 20:13:00,42.0,19.0,30.07,WNW,285,12.0,15.0,39,0.00,,,0.00,,2013-04-03 00:13:00,
2013-04-02 20:25:00,42.0,19.0,30.10,NW,315,12.0,15.0,39,0.00,,,0.00,,2013-04-03 00:25:00,
2013-04-02 20:33:00,42.0,19.0,30.10,NW,305,12.0,17.0,39,0.00,,,0.00,,2013-04-03 00:33:00,
2013-04-02 20:47:00,42.0,19.0,30.10,NW,305,12.0,17.0,39,0.00,,,0.00,,2013-04-03 00:47:00,
2013-04-02 20:57:00,42.0,19.0,30.10,NW,305,10.0,16.0,39,0.00,,,0.00,,2013-04-03 00:57:00,
2013-04-02 21:04:00,42.0,19.0,30.10,WNW,300,10.0,12.0,39,0.00,,,0.00,,2013-04-03 01:04:00,
2013-04-02 21:13:00,42.0,19.0,30.10,WNW,300,10.0,12.0,39,0.00,,,0.00,,2013-04-03 01:13:00,
2013-04-02 21:23:00,41.0,18.0,30.10,WNW,300,9.0,12.0,39,0.00,,,0.00,,2013-04-03 01:23:00,
2013-04-02 21:33:00,42.0,19.0,30.10,WNW,300,9.0,13.0,39,0.00,,,0.00,,2013-04-03 01:33:00,
2013-04-02 21:42:00,42.0,19.0,30.10,WNW,300,9.0,13.0,39,0.00,,,0.00,,2013-04-03 01:42:00,
2013-04-02 21:54:00,42.0,19.0,30.13,NW,315,14.0,17.0,39,0.00,,,0.00,,2013-04-03 01:54:00,
2013-04-02 22:03:00,42.0,19.0,30.13,NW,315,14.0,14.0,39,0.00,,,0.00,,2013-04-03 02:03:00,
2013-04-02 22:13:00,42.0,19.0,30.13,NW,315,14.0,14.0,39,0.00,,,0.00,,2013-04-03 02:13:00,
2013-04-02 22:34:00,42.0,19.0,30.13,NW,320,13.0,15.0,39,0.00,,,0.00,,2013-04-03 02:34:00,
2013-04-02 22:44:00,42.0,19.0,30.13,NW,320,13.0,15.0,39,0.00,,,0.00,,2013-04-03 02:44:00,
2013-04-02 22:53:00,42.0,19.0,30.13,NW,310,12.0,14.0,39,0.00,,,0.00,,2013-04-03 02:53:00,
2013-04-02 23:05:00,41.0,18.0,30.13,NNW,330,12.0,14.0,39,0.00,,,0.00,,2013-04-03 03:05:00,
2013-04-02 23:14:00,41.0,18.0,30.13,NNW,330,12.0,14.0,39,0.00,,,0.00,,2013-04-03 03:14:00,
2013-04-02 23:23:00,41.0,18.0,30.13,NNW,340,9.0,12.0,39,0.00,,,0.00,,2013-04-03 03:23:00,
2013-04-02 23:37:00,41.0,18.0,30.10,NW,325,10.0,13.0,39,0.00,,,0.00,,2013-04-03 03:37:00,
2013-04-02 23:44:00,41.0,18.0,30.10,NW,325,10.0,13.0,39,0.00,,,0.00,,2013-04-03 03:44:00,
2013-04-02 23:54:00,40.0,17.0,30.13,NW,320,9.0,13.0,39,0.00,,,0.00,,2013-04-03 03:54:00,